Location: Unnamed
(47.6264°N, 122.3366°W)
Time: 04:34:32
(UTC-07:00)

UPPER FREE FLYER - Visible Passes

Search period start: 05 August 2020 00:00
Search period end: 15 August 2020 00:00
Orbit: 570 x 590 km, 97.7° (Epoch: 04 August)

Date Brightness Start Highest point End Pass type
(mag) Time Alt. Az. Time Alt. Az. Time Alt. Az.
05 Aug ? 21:53:48 15° ESE 21:56:02 22° ENE 21:59:14 10° NNE visible
05 Aug ? 23:30:09 32° SW 23:31:10 37° W 23:35:00 10° NNW visible
06 Aug ? 21:58:54 17° ESE 22:00:59 25° ENE 22:04:20 10° N visible
06 Aug ? 23:35:15 29° SW 23:36:11 33° W 23:39:54 10° NNW visible
07 Aug ? 22:04:01 19° ESE 22:05:55 27° ENE 22:09:24 10° N visible
07 Aug ? 23:40:21 27° WSW 23:41:11 29° W 23:44:48 10° NNW visible
08 Aug ? 22:09:07 22° ESE 22:10:51 31° ENE 22:14:28 10° N visible
08 Aug ? 23:45:28 25° WSW 23:46:12 26° W 23:49:40 10° NW visible
09 Aug ? 22:14:14 25° ESE 22:15:48 34° ENE 22:19:31 10° N visible
09 Aug ? 23:50:35 23° WSW 23:51:13 24° W 23:54:33 10° NW visible
10 Aug ? 22:19:21 29° ESE 22:20:45 38° ENE 22:24:34 10° N visible
10 Aug ? 23:55:41 21° WSW 23:56:14 21° W 23:59:23 10° NW visible
11 Aug ? 22:24:28 33° ESE 22:25:42 43° ENE 22:29:36 10° N visible
12 Aug ? 00:00:48 19° W 00:01:15 19° W 00:04:12 10° NW visible
12 Aug ? 22:29:35 38° ESE 22:30:40 48° ENE 22:34:38 10° N visible
13 Aug ? 00:05:55 17° W 00:06:16 17° W 00:08:59 10° NW visible
13 Aug ? 22:34:41 43° ESE 22:35:37 55° ENE 22:39:39 10° N visible
14 Aug ? 00:11:02 15° W 00:11:19 15° W 00:13:43 10° NW visible
14 Aug ? 22:39:48 50° ESE 22:40:35 62° ENE 22:44:40 10° N visible
